English version Home page |
Updated on April 6, 2013 |
|
軌道要素Epoch 2009 July 28.0 TT = JDT 2455040.5 T 2009 July 22.93786 TT MPC q 3.8961052 (2000.0) P Q z -0.0004533 Peri. 11.86290 +0.98145067 -0.18820185 +/-0.0000006 Node 357.67657 -0.02839089 +0.04577773 e 1.0017660 Incl. 64.30894 +0.18960100 +0.98106292 From 1245 observations 2008 Aug. 13-2011 Feb. 4, mean residual 0".5.
|
星図
|
光度変化m1 = 6.5 + 5 logΔ + 11.0 log r(t + 175)
|
軌道要素はM.P.E.C. 2013-B90に掲載されたものです。
|